EW3230 Weather Reports


time (UTC)temp
C
wind
direction
speed
KPH
gust
KPH
rain 1hr
cm
rain 24hr
cm
rain mn
cm
humidity
%
barometer
mb
20260507172505 16 214 1.6 9.7 0.00 1.32 1.07 70 1006.8
20260507171517 17 174 1.6 6.4 0.00 1.32 1.07 68 1007.0
20260507170505 17 246 1.6 8.0 0.00 1.32 1.07 58 1007.0
20260507165504 18 238 1.6 8.0 0.00 1.32 1.07 54 1007.1
20260507164504 18 276 1.6 8.0 0.00 1.32 1.07 55 1007.2
20260507163504 18 239 1.6 8.0 0.00 1.32 1.07 57 1007.2
20260507163003 17 252 0.0 6.4 0.00 1.32 1.07 61 1007.3
20260507161459 16 205 1.6 6.4 0.00 1.32 1.07 65 1007.3
20260507160458 16 214 1.6 8.0 0.00 1.32 1.07 65 1007.6
20260507155458 16 335 1.6 8.0 0.00 1.32 1.07 68 1007.8
20260507155000 15 315 0.0 3.2 0.00 1.32 1.07 69 1007.8
20260507154003 15 69 0.0 6.4 0.00 1.32 1.07 70 1008.0
20260507152459 15 309 1.6 9.7 0.00 1.32 1.07 71 1008.1
20260507151459 15 229 3.2 11.3 0.00 1.32 1.07 74 1008.1
20260507150459 14 250 1.6 8.0 0.00 1.32 1.07 72 1008.2
20260507145459 13 302 1.6 8.0 0.00 1.32 1.07 78 1008.3
20260507145453 14 296 1.6 8.0 0.00 1.32 1.07 74 1008.0
20260507143454 13 232 0.0 4.8 0.00 1.32 1.07 79 1008.1
20260507142451 12 63 1.6 6.4 0.00 1.32 1.07 81 1008.3
20260507141453 12 276 1.6 6.4 0.00 1.32 1.07 81 1008.5
20260507140454 12 262 1.6 6.4 0.00 1.32 1.07 79 1008.5
20260507135452 11 268 0.0 4.8 0.00 1.32 1.07 75 1008.6
20260507134454 11 290 0.0 4.8 0.00 1.32 1.07 73 1008.3
20260507133454 10 163 0.0 3.2 0.00 1.32 1.07 73 1008.5
20260507132447 10 272 0.0 1.6 0.03 1.32 1.07 74 1008.7
20260507131947 10 293 0.0 3.2 0.03 1.32 1.07 73 1008.4
20260507130446 10 321 0.0 1.6 0.05 1.32 1.07 73 1008.6
20260507125945 9 304 0.0 1.6 0.08 1.32 1.07 72 1008.4
20260507124945 9 253 0.0 3.2 0.08 1.32 1.07 71 1008.6
20260507123444 9 6 0.0 1.6 0.08 1.32 1.07 69 1008.5
20260507122446 9 110 0.0 1.6 0.08 1.30 1.04 70 1008.8
20260507121948 9 291 0.0 1.6 0.10 1.30 1.04 69 1008.7
20260507120445 8 308 0.0 1.6 0.08 1.27 1.02 69 1008.4
20260507115442 8 302 0.0 1.6 0.08 1.24 0.99 70 1008.7
20260507114438 8 304 0.0 1.6 0.08 1.24 0.99 70 1008.5
20260507113439 8 291 0.0 3.2 0.10 1.24 0.99 71 1008.6
20260507112438 8 256 0.0 1.6 0.08 1.22 0.97 70 1008.6
20260507111438 8 295 1.6 8.0 0.08 1.19 0.94 70 1008.9
20260507110439 9 285 0.0 4.8 0.10 1.19 0.94 70 1007.8
20260507105940 9 316 0.0 4.8 0.10 1.17 0.94 70 1007.7
20260507104439 9 309 0.0 3.2 0.10 1.17 0.91 69 1007.8
20260507103438 10 56 1.6 6.4 0.10 1.14 0.89 69 1007.9
20260507102432 10 278 0.0 6.4 0.13 1.14 0.89 67 1007.7
20260507101433 10 276 0.0 4.8 0.15 1.12 0.86 67 1007.9
20260507100432 10 308 0.0 3.2 0.15 1.09 0.84 67 1007.2
20260507095432 10 319 1.6 6.4 0.15 1.07 0.81 67 1007.4
20260507094934 10 50 0.0 4.8 0.20 1.07 0.81 66 1007.4
20260507093433 11 284 0.0 4.8 0.20 1.04 0.79 66 1007.1
20260507092933 11 52 0.0 3.2 0.28 1.02 0.76 65 1007.2
20260507091433 11 322 1.6 6.4 0.43 0.97 0.71 65 1007.1
20260507090435 11 342 0.0 1.6 0.66 0.94 0.69 65 1007.1
20260507085429 12 275 0.0 6.4 0.66 0.91 0.66 65 1007.4
20260507084428 12 290 0.0 3.2 0.61 0.86 0.61 64 1006.8
20260507083430 12 210 0.0 4.8 0.48 0.74 0.48 64 1007.1
20260507083426 12 297 0.0 1.6 0.56 0.81 0.58 64 1006.9
20260507081427 12 255 0.0 3.2 0.28 0.53 0.30 64 1007.4
20260507080427 12 197 0.0 1.6 0.03 0.28 0.03 64 1006.6
20260507075427 12 221 0.0 0.0 0.00 0.25 0.00 64 1006.2
20260507074427 12 221 0.0 0.0 0.00 0.25 0.00 64 1006.2
20260507073426 12 221 0.0 0.0 0.00 0.25 0.00 64 1006.1
20260507072922 12 221 0.0 0.0 0.00 0.25 0.00 64 1006.2
20260507071420 12 221 0.0 0.0 0.00 0.25 0.00 64 1006.2
20260507070420 12 221 0.0 0.0 0.00 0.25 0.00 64 1006.2
20260507065420 12 221 0.0 0.0 0.00 0.25 0.00 64 1006.4
20260507064420 12 221 0.0 1.6 0.00 0.25 0.00 64 1006.3
20260507063922 12 221 0.0 1.6 0.00 0.25 0.00 65 1006.3
20260507062420 12 221 0.0 1.6 0.00 0.25 0.00 65 1006.3
20260507061422 12 221 0.0 1.6 0.00 0.25 0.00 65 1006.8
20260507060421 12 221 0.0 1.6 0.00 0.25 0.00 65 1006.6
20260507055416 12 255 0.0 1.6 0.00 0.25 0.00 65 1006.8
20260507054916 12 123 0.0 1.6 0.00 0.25 0.00 65 1006.7
20260507053414 12 170 0.0 1.6 0.00 0.25 0.00 65 1007.1
20260507052414 12 130 0.0 1.6 0.00 0.25 0.00 65 1007.3
20260507051415 12 268 0.0 1.6 0.00 0.25 0.00 65 1007.3
20260507050415 12 197 0.0 1.6 0.00 0.25 0.00 65 1007.3
20260507045418 12 203 0.0 1.6 0.00 0.25 0.00 65 1007.5
20260507044414 12 203 0.0 1.6 0.00 0.25 0.00 65 1007.4
20260507043415 12 203 0.0 1.6 0.00 0.25 0.00 65 1007.3
20260507042911 12 200 0.0 1.6 0.00 0.25 0.00 65 1007.5
20260507041408 12 203 0.0 1.6 0.00 0.25 0.00 65 1007.5
20260507040409 12 204 0.0 1.6 0.00 0.25 0.00 65 1007.5
20260507035407 12 215 0.0 1.6 0.00 0.25 0.25 65 1007.5
20260507034406 12 205 0.0 1.6 0.00 0.25 0.25 66 1007.5
20260507033408 12 210 0.0 4.8 0.00 0.25 0.25 66 1007.9
20260507032909 12 200 1.6 6.4 0.00 0.25 0.25 66 1007.7
20260507031406 12 201 1.6 6.4 0.00 0.25 0.25 66 1007.7
20260507030412 12 97 1.6 3.2 0.00 0.25 0.25 66 1007.3
20260507030406 12 229 1.6 6.4 0.00 0.25 0.25 66 1007.4
20260507024402 12 248 1.6 6.4 0.00 0.25 0.25 66 1007.4
20260507023401 12 208 1.6 3.2 0.00 0.25 0.25 66 1007.4
20260507022400 12 167 0.0 3.2 0.00 0.25 0.25 66 1007.7
20260507021400 13 206 1.6 6.4 0.00 0.25 0.25 66 1007.9
20260507020402 13 208 1.6 4.8 0.03 0.25 0.25 66 1008.0
20260507015401 13 180 1.6 4.8 0.03 0.25 0.25 66 1008.1
20260507014906 13 167 1.6 6.4 0.03 0.25 0.25 66 1008.1
20260507013404 13 198 1.6 8.0 0.03 0.25 0.25 66 1008.3
20260507012359 13 203 3.2 9.7 0.03 0.25 0.25 66 1008.5
20260507011407 13 174 3.2 11.3 0.03 0.25 0.25 66 1008.5
20260507010353 13 222 3.2 8.0 0.03 0.23 0.23 66 1008.4
20260507005353 13 229 1.6 12.9 0.05 0.23 0.23 66 1008.4
20260507004354 13 212 1.6 8.0 0.08 0.23 0.23 66 1008.4
20260507003355 13 224 1.6 8.0 0.13 0.23 0.23 66 1008.4
20260507002354 13 224 3.2 9.7 0.13 0.23 0.23 67 1008.4
20260507001853 13 179 3.2 9.7 0.13 0.23 0.23 67 1008.5
20260507001507 13 242 1.6 6.4 0.13 0.20 0.20 67 1008.5
20260506235346 13 210 1.6 8.0 0.13 0.18 0.18 67 1008.4
20260506234349 13 246 1.6 6.4 0.13 0.15 0.15 68 1008.4
20260506233847 13 205 3.2 11.3 0.08 0.10 0.10 68 1008.4
20260506232347 13 207 3.2 9.7 0.10 0.10 0.10 69 1008.1
20260506231348 13 190 3.2 12.9 0.10 0.10 0.10 69 1008.3
20260506230850 13 109 3.2 9.7 0.08 0.08 0.08 70 1008.4
20260506225347 13 194 3.2 14.5 0.05 0.05 0.05 71 1008.5
20260506224347 13 236 1.6 8.0 0.03 0.03 0.03 72 1008.5
20260506223347 13 235 3.2 16.1 0.03 0.03 0.03 74 1008.5
20260506222844 14 188 4.8 12.9 0.00 0.00 0.00 76 1008.8
20260506221340 14 223 3.2 12.9 0.00 0.00 0.00 78 1008.8
20260506220341 15 198 3.2 9.7 0.00 0.00 0.00 79 1008.9
20260506215341 15 222 4.8 11.3 0.00 0.00 0.00 80 1008.9
20260506214341 15 210 3.2 6.4 0.00 0.00 0.00 80 1008.9
20260506213342 15 195 4.8 12.9 0.00 0.00 0.00 80 1009.0
20260506212345 15 225 4.8 12.9 0.00 0.00 0.00 80 1009.2
20260506212340 15 158 3.2 11.3 0.00 0.00 0.00 80 1009.0
20260506210341 15 198 3.2 11.3 0.00 0.00 0.00 81 1009.3
20260506205335 15 200 3.2 12.9 0.00 0.00 0.00 81 1009.3
20260506204838 15 229 3.2 14.5 0.00 0.00 0.00 81 1009.2
20260506203336 15 212 4.8 17.7 0.00 0.00 0.00 81 1009.3
20260506202838 15 217 4.8 14.5 0.00 0.00 0.00 81 1009.5
20260506201335 15 225 3.2 9.7 0.00 0.00 0.00 81 1009.5
20260506200335 15 186 4.8 17.7 0.00 0.00 0.00 81 1009.7
20260506195336 16 242 4.8 14.5 0.00 0.00 0.00 80 1009.8
20260506194336 16 155 4.8 17.7 0.00 0.00 0.00 80 1009.8
20260506193335 16 191 4.8 12.9 0.00 0.00 0.00 80 1010.0
20260506192334 16 242 4.8 12.9 0.00 0.00 0.00 80 1010.0
20260506191333 16 198 3.2 9.7 0.00 0.00 0.00 79 1010.1
20260506190345 16 206 4.8 19.3 0.00 0.00 0.00 79 1010.0
20260506185333 17 210 3.2 14.5 0.00 0.00 0.00 78 1010.2
20260506184333 17 205 4.8 14.5 0.00 0.00 0.00 79 1010.3
20260506183333 16 221 6.4 16.1 0.00 0.00 0.00 79 1010.5
20260506182333 17 192 6.4 12.9 0.00 0.00 0.00 78 1010.7
20260506181835 17 198 4.8 12.9 0.00 0.00 0.00 77 1010.9
20260506180334 17 174 6.4 17.7 0.00 0.00 0.00 77 1011.0
20260506175333 18 207 6.4 14.5 0.00 0.00 0.00 76 1011.1
20260506174333 18 203 6.4 19.3 0.00 0.00 0.00 76 1011.4
20260506173332 18 221 8.0 19.3 0.00 0.00 0.00 76 1011.3